TimeCDT,TemperatureF,Dew PointF,Humidity,Sea Level PressureIn,VisibilityMPH,Wind Direction,Wind SpeedMPH,Gust SpeedMPH,PrecipitationIn,Events,Conditions,WindDirDegrees,DateUTC
12:54 AM,54.0,51.1,90,29.93,10.0,WNW,4.6,-,N/A,,Clear,290,2013-09-21 05:54:00
1:54 AM,53.1,50.0,89,29.93,10.0,NW,5.8,-,N/A,,Clear,320,2013-09-21 06:54:00
2:54 AM,52.0,48.9,89,29.92,10.0,WNW,6.9,-,N/A,,Partly Cloudy,300,2013-09-21 07:54:00
3:54 AM,52.0,48.9,89,29.93,10.0,NW,6.9,-,N/A,,Clear,320,2013-09-21 08:54:00
4:54 AM,52.0,48.0,86,29.93,10.0,NW,5.8,-,N/A,,Clear,320,2013-09-21 09:54:00
5:54 AM,50.0,46.0,86,29.94,10.0,NW,6.9,-,N/A,,Clear,320,2013-09-21 10:54:00
6:54 AM,48.9,46.0,90,29.96,10.0,NW,6.9,-,N/A,,Clear,310,2013-09-21 11:54:00
7:54 AM,51.1,46.0,83,29.96,10.0,NNW,9.2,-,N/A,,Clear,330,2013-09-21 12:54:00
8:54 AM,55.0,48.0,77,29.97,10.0,NNW,9.2,-,N/A,,Clear,340,2013-09-21 13:54:00
9:54 AM,59.0,46.9,64,29.99,10.0,North,9.2,-,N/A,,Clear,350,2013-09-21 14:54:00
10:54 AM,63.0,46.9,56,29.99,10.0,NNW,9.2,-,N/A,,Clear,330,2013-09-21 15:54:00
11:54 AM,64.9,45.0,48,29.99,10.0,North,8.1,-,N/A,,Partly Cloudy,350,2013-09-21 16:54:00
12:54 PM,66.0,46.0,48,29.98,10.0,NNW,11.5,18.4,N/A,,Clear,340,2013-09-21 17:54:00
1:54 PM,70.0,44.1,39,29.96,10.0,NNW,10.4,16.1,N/A,,Clear,340,2013-09-21 18:54:00
2:54 PM,70.0,44.1,39,29.94,10.0,NNW,8.1,-,N/A,,Clear,340,2013-09-21 19:54:00
3:54 PM,71.1,45.0,39,29.93,10.0,NNW,9.2,-,N/A,,Clear,330,2013-09-21 20:54:00
4:54 PM,71.1,44.1,38,29.92,10.0,NW,8.1,-,N/A,,Clear,320,2013-09-21 21:54:00
5:54 PM,69.1,44.1,40,29.92,10.0,WNW,6.9,-,N/A,,Clear,290,2013-09-21 22:54:00
6:54 PM,64.9,46.0,50,29.92,10.0,NW,4.6,-,N/A,,Clear,310,2013-09-21 23:54:00
7:54 PM,62.1,46.0,56,29.92,10.0,Calm,Calm,-,N/A,,Clear,0,2013-09-22 00:54:00
8:54 PM,61.0,46.9,60,29.93,10.0,NW,3.5,-,N/A,,Clear,310,2013-09-22 01:54:00
9:54 PM,57.9,48.0,70,29.95,10.0,NW,3.5,-,N/A,,Clear,320,2013-09-22 02:54:00
10:54 PM,57.9,46.0,65,29.95,10.0,Calm,Calm,-,N/A,,Clear,0,2013-09-22 03:54:00
11:54 PM,55.9,46.0,69,29.95,10.0,Calm,Calm,-,N/A,,Clear,0,2013-09-22 04:54:00